South Bend, IN

11:12 PM EDT on April 21, 2018 (GMT -0400)
South Bend Regional

Weather History for KSBN - February, 2014

Change the Weather History Date:

Sunday, February 16, 2014

  Actual Average Record
Temperature  
Mean Temperature 22 °F 28 °F  
Max Temperature 27 °F 35 °F 60 °F (1921)
Min Temperature 16 °F 21 °F -10 °F (1905)
Degree Days  
Heating Degree Days 43 37  
Month to date heating degree days 807 621  
Since 1 July heating degree days 4697 4269  
Cooling Degree Days 0 0  
Month to date cooling degree days 0 0  
Year to date cooling degree days 0 0  
Moisture  
Dew Point 15 °F    
Average Humidity 79    
Maximum Humidity 84    
Minimum Humidity 73    
Precipitation  
Precipitation 0.01 in 0.06 in 1.14 in (1954)
Month to date precipitation 0.87 1.04  
Year to date precipitation 3.99 3.33  
Snow  
Snow 0.00 in 0.50 in 4.50 in (1997)
Month to date snowfall 9.3  
Since 1 July snowfall 52.4  
Snow Depth -    
Sea Level Pressure  
Sea Level Pressure 30.08 in    
Wind  
Wind Speed 7 mph (West)    
Max Wind Speed 20 mph    
Max Gust Speed 23 mph    
Visibility 6 miles    
Events Snow    
T = Trace of Precipitation, MM = Missing Value Source: NWS Daily Summary

Daily Weather History Graph

Daily Weather History Graph

Search for Another Location

Airport or City:

Astronomy

Feb. 16, 2014 Rise Set
Actual Time 7:39 AM EST 6:19 PM EST
Civil Twilight 7:10 AM EST 6:48 PM EST
Nautical Twilight 6:38 AM EST 7:20 PM EST
Astronomical Twilight 6:06 AM EST 7:53 PM EST
Moon 8:18 PM EST (2/16) 8:06 AM EST (2/16)
Length of Visible Light 11h 37m
Length of Day
10h 40m
Full, 97% of the Moon is Illuminated
Feb 16
Full
Feb 22
Last Quarter
Mar 1
New
Mar 8
First Quarter
Mar 16
Full

Hourly Weather History & Observations

Time (EST) Temp. Windchill Dew Point Humidity Pressure Visibility Wind Dir Wind Speed Gust Speed Precip Events Conditions
12:06 AM 17.6 °F 10.7 °F 10.4 °F 73% 29.99 in 3.0 mi SSE 4.6 mph - 0.00 in Snow Light Snow
12:52 AM 17.6 °F 8.2 °F 10.4 °F 73% 29.97 in 2.0 mi SSE 6.9 mph - 0.00 in Snow Light Snow
12:54 AM 17.1 °F 7.6 °F 10.9 °F 77% 30.01 in 2.0 mi SSE 6.9 mph - 0.00 in Snow Light Snow
1:04 AM 17.6 °F 6.4 °F 10.4 °F 73% 29.96 in 6.0 mi SSE 9.2 mph - 0.00 in   Haze
1:27 AM 17.6 °F 9.3 °F 10.4 °F 73% 29.96 in 2.5 mi SSE 5.8 mph - 0.00 in Snow Light Snow
1:41 AM 17.6 °F - 12.2 °F 79% 29.97 in 3.0 mi Calm Calm - 0.00 in Snow Light Snow
1:54 AM 17.1 °F 10.0 °F 10.9 °F 77% 30.01 in 6.0 mi South 4.6 mph - 0.01 in   Haze
2:22 AM 17.6 °F 12.3 °F 12.2 °F 79% 29.96 in 8.0 mi SSE 3.5 mph - 0.00 in   Overcast
2:29 AM 17.6 °F 12.3 °F 12.2 °F 79% 29.96 in 8.0 mi South 3.5 mph - 0.00 in   Overcast
2:54 AM 18.0 °F 11.1 °F 12.0 °F 78% 29.99 in 4.0 mi SE 4.6 mph - 0.00 in   Haze
3:54 AM 19.0 °F 13.9 °F 12.9 °F 77% 29.98 in 7.0 mi SSE 3.5 mph - N/A   Overcast
4:54 AM 19.0 °F - 12.9 °F 77% 29.96 in 7.0 mi Calm Calm - N/A   Overcast
5:54 AM 19.0 °F - 14.0 °F 81% 29.97 in 4.0 mi Calm Calm - 0.00 in Snow Light Snow
6:54 AM 19.0 °F 12.3 °F 14.0 °F 81% 29.99 in 7.0 mi West 4.6 mph - 0.00 in   Overcast
7:07 AM 19.4 °F 11.5 °F 14.0 °F 80% 29.95 in 7.0 mi West 5.8 mph - N/A   Overcast
7:54 AM 19.0 °F 9.0 °F 14.0 °F 81% 30.03 in 5.0 mi West 8.1 mph - N/A   Haze
8:02 AM 19.4 °F 10.4 °F 14.0 °F 80% 29.99 in 5.0 mi West 6.9 mph - N/A   Haze
8:54 AM 19.9 °F 12.1 °F 15.1 °F 81% 30.06 in 4.0 mi NW 5.8 mph - N/A   Haze
9:35 AM 21.2 °F 10.1 °F 15.8 °F 80% 30.03 in 3.0 mi WNW 10.4 mph - N/A   Haze
9:54 AM 21.9 °F 10.4 °F 16.0 °F 78% 30.09 in 4.0 mi WNW 11.5 mph - N/A   Haze
10:28 AM 23.0 °F 12.4 °F 17.6 °F 80% 30.05 in 2.0 mi NW 10.4 mph - 0.00 in Snow Light Snow
10:54 AM 25.0 °F 15.5 °F 18.0 °F 75% 30.10 in 3.0 mi NW 9.2 mph - 0.00 in Snow Light Snow
11:54 AM 26.1 °F 15.0 °F 19.0 °F 75% 30.12 in 6.0 mi NW 12.7 mph - 0.00 in   Haze
12:07 PM 26.6 °F 15.7 °F 17.6 °F 69% 30.09 in 6.0 mi NW 12.7 mph - N/A   Haze
12:54 PM 25.0 °F 12.6 °F 18.0 °F 75% 30.14 in 3.0 mi WNW 15.0 mph - 0.00 in Snow Light Snow
1:54 PM 25.0 °F 12.6 °F 19.0 °F 78% 30.16 in 2.5 mi NW 15.0 mph - 0.00 in Snow Light Snow
2:08 PM 24.8 °F 12.9 °F 19.4 °F 80% 30.12 in 1.8 mi NW 13.8 mph - 0.00 in Snow Light Snow
2:29 PM 24.8 °F 11.1 °F 17.6 °F 74% 30.13 in 3.0 mi WNW 18.4 mph - 0.00 in Snow Light Snow
2:54 PM 25.0 °F 12.2 °F 17.1 °F 72% 30.17 in 7.0 mi NW 16.1 mph - 0.00 in   Overcast
3:54 PM 25.0 °F 13.6 °F 18.0 °F 75% 30.19 in 10.0 mi NW 12.7 mph - N/A   Mostly Cloudy
4:56 PM 24.8 °F 15.3 °F 19.4 °F 80% 30.19 in 9.0 mi West 9.2 mph - N/A   Overcast
5:54 PM 25.0 °F 19.3 °F 19.0 °F 78% 30.25 in 10.0 mi West 4.6 mph - N/A   Mostly Cloudy
5:57 PM 24.8 °F 20.5 °F 19.4 °F 80% 30.21 in 10.0 mi WNW 3.5 mph - N/A   Overcast
6:54 PM 24.1 °F 14.4 °F 18.0 °F 77% 30.28 in 10.0 mi NNW 9.2 mph - N/A   Mostly Cloudy
9:54 PM 18.0 °F - 12.0 °F 78% 30.31 in 9.0 mi Calm Calm - N/A   Overcast
10:54 PM 17.1 °F 11.7 °F 12.0 °F 81% 30.31 in 7.0 mi East 3.5 mph - N/A   Overcast
11:54 PM 21.0 °F 10.6 °F 16.0 °F 81% 30.30 in 7.0 mi ESE 9.2 mph - N/A   Mostly Cloudy